M I D A S
Marine Information and Data Acquisition System
Tripno 230 of the Zeeleeuw from 2002-03-26 07:41:28 to 2002-03-26 14:18:32
Back to CruiseResearch ActivitiesStationsMapUnderway DataData graphs

EquipmentUnitsComment
TimeDGPSUTC
LatitudeDGPSDM.mWGS84
LongitudeDGPSDM.mWGS84
TemperatureSBE03/SBE38deg celciusITS90
ConductivitySBE21S/mITS90
SalinitySBE21 Practical Salinity Units
ChlorophylAChelsea fluorimeterg/lCalibrated in Aceton
Missing or incorrect values are displayed as -999
Sea surface data collected by the RV Zeeleeuw from 2002-03-26 07:41:28 to 2002-03-26 14:18:32
                                                                                    Next 1000 lines
Time Latitude Longitude Temperature Conductivity Salinity ChlorophylA
2002-03-26 07:41:35 51°13.689 2°55.906 19.90078 0.021079 0.106496  
2002-03-26 07:41:40 51°13.689 2°55.906 19.66589 0.021079 0.106496  
2002-03-26 07:41:45 51°13.689 2°55.906 19.364501 0.021079 0.106495  
2002-03-26 07:41:50 51°13.688 2°55.906 19.364501 0.021079 0.106495  
2002-03-26 07:41:55 51°13.688 2°55.906 19.66589 0.021079 0.106495  
2002-03-26 07:42:00 51°13.688 2°55.906 19.567145 0.021079 0.106492  
2002-03-26 07:42:05 51°13.688 2°55.906 19.667394 0.021079 0.106492  
2002-03-26 07:42:09 51°13.688 2°55.906 19.598325 0.021079 0.106493  
2002-03-26 07:42:15 51°13.688 2°55.906 19.598325 0.021079 0.106493  
2002-03-26 07:42:20 51°13.688 2°55.905 19.796238 0.021079 0.106492  
2002-03-26 07:42:25 51°13.688 2°55.905 19.126574 0.021079 0.10649  
2002-03-26 07:42:30 51°13.688 2°55.905 19.261118 0.021079 0.106488  
2002-03-26 07:42:35 51°13.688 2°55.905 19.79498 0.021079 0.106488  
2002-03-26 07:42:40 51°13.688 2°55.905 19.29501 0.021079 0.106488  
2002-03-26 07:42:45 51°13.688 2°55.905 19.564051 0.021079 0.106486  
2002-03-26 07:42:49 51°13.687 2°55.905 19.564051 0.021079 0.106486  
2002-03-26 07:42:55 51°13.687 2°55.905 19.996792 0.021079 0.106486  
2002-03-26 07:42:59 51°13.687 2°55.905 19.427844 0.021079 0.106485  
2002-03-26 07:43:04 51°13.687 2°55.905 19.430169 0.021079 0.106484  
2002-03-26 07:43:10 51°13.687 2°55.905 19.099527 0.021079 0.106484  
2002-03-26 07:43:15 51°13.687 2°55.905 19.869775 0.021079 0.106482  
2002-03-26 07:43:20 51°13.686 2°55.905 19.869775 0.021079 0.106482  
2002-03-26 07:43:25 51°13.686 2°55.905 19.40577 0.021079 0.106481  
2002-03-26 07:43:30 51°13.686 2°55.905 19.337995 0.021079 0.106481  
2002-03-26 07:43:35 51°13.686 2°55.905 19.3382 0.021079 0.106481  
2002-03-26 07:43:40 51°13.686 2°55.904 19.586278 0.021079 0.10648  
2002-03-26 07:43:44 51°13.685 2°55.904 19.725062 0.021079 0.106478  
2002-03-26 07:43:50 51°13.685 2°55.904 19.725062 0.021079 0.106478  
2002-03-26 07:43:55 51°13.685 2°55.902 19.484731 0.021079 0.106477  
2002-03-26 07:44:00 51°13.686 2°55.9 19.233837 0.021079 0.106475  
2002-03-26 07:44:04 51°13.686 2°55.898 19.606098 0.021079 0.106477  
2002-03-26 07:44:09 51°13.687 2°55.895 19.407198 0.021079 0.106475  
2002-03-26 07:44:16 51°13.688 2°55.889 19.372218 0.021079 0.106475  
2002-03-26 07:44:21 51°13.689 2°55.884 19.372218 0.021079 0.106475  
2002-03-26 07:44:26 51°13.69 2°55.878 20.196654 0.021079 0.106474  
2002-03-26 07:44:31 51°13.691 2°55.872 19.600238 0.021079 0.106474  
2002-03-26 07:44:36 51°13.692 2°55.865 19.610208 0.021079 0.106474  
2002-03-26 07:44:40 51°13.693 2°55.859 19.971738 0.021079 0.106473  
2002-03-26 07:44:46 51°13.694 2°55.851 19.582208 0.021079 0.106471  
2002-03-26 07:44:51 51°13.695 2°55.844 19.582208 0.021079 0.106471  
2002-03-26 07:44:56 51°13.695 2°55.838 19.680403 0.021079 0.10647  
2002-03-26 07:45:01 51°13.696 2°55.831 20.425318 0.021079 0.10647  
2002-03-26 07:45:05 51°13.696 2°55.825 19.432454 0.021079 0.106469  
2002-03-26 07:45:10 51°13.697 2°55.818 19.572438 0.021079 0.106467  
2002-03-26 07:45:15 51°13.698 2°55.812 19.73741 0.021079 0.106467  
2002-03-26 07:45:21 51°13.698 2°55.803 19.73741 0.021079 0.106467  
2002-03-26 07:45:26 51°13.699 2°55.796 19.765876 0.021079 0.106466  
2002-03-26 07:45:31 51°13.699 2°55.788 19.735501 0.021079 0.106466  
2002-03-26 07:45:36 51°13.699 2°55.781 20.431874 0.021079 0.106463  
2002-03-26 07:45:40 51°13.699 2°55.775 20.267153 0.021079 0.106465  
2002-03-26 07:45:46 51°13.698 2°55.767 20.267153 0.021079 0.106465  
2002-03-26 07:45:51 51°13.698 2°55.76 20.002457 0.021079 0.106463  
2002-03-26 07:45:56 51°13.697 2°55.754 19.802406 0.021079 0.106462  
2002-03-26 07:46:00 51°13.697 2°55.749 19.400383 0.021079 0.106462  
2002-03-26 07:46:05 51°13.696 2°55.743 19.166059 0.021079 0.106462  
2002-03-26 07:46:10 51°13.696 2°55.738 19.834537 0.021079 0.106459  
2002-03-26 07:46:14 51°13.695 2°55.733 19.769287 0.021079 0.106459  
2002-03-26 07:46:19 51°13.694 2°55.728 19.769287 0.021079 0.106459  
2002-03-26 07:46:25 51°13.694 2°55.722 19.536073 0.021079 0.106458  
2002-03-26 07:46:30 51°13.693 2°55.718 19.642549 0.021079 0.106456  
2002-03-26 07:46:34 51°13.692 2°55.714 19.671175 0.021079 0.106458  
2002-03-26 07:46:39 51°13.692 2°55.712 19.662678 0.021079 0.106456  
2002-03-26 07:46:45 51°13.693 2°55.711 19.300201 0.021079 0.106456  
2002-03-26 07:46:50 51°13.695 2°55.712 19.300201 0.021079 0.106456  
2002-03-26 07:46:55 51°13.697 2°55.714 19.684549 0.021079 0.106455  
2002-03-26 07:47:00 51°13.7 2°55.716 19.925332 0.021079 0.106463  
2002-03-26 07:47:05 51°13.704 2°55.719 20.125478 0.021178 0.106952  
2002-03-26 07:47:10 51°13.71 2°55.72 19.921443 0.021079 0.10646  
2002-03-26 07:47:15 51°13.715 2°55.72 20.001769 0.021079 0.10646  
2002-03-26 07:47:20 51°13.721 2°55.719 20.001769 0.021079 0.10646  
2002-03-26 07:47:25 51°13.727 2°55.717 20.033161 0.021079 0.10646  
2002-03-26 07:47:30 51°13.733 2°55.715 20.058961 0.021079 0.10646  
2002-03-26 07:47:35 51°13.739 2°55.712 20.079537 0.021178 0.106941  
2002-03-26 07:47:40 51°13.746 2°55.709 19.56629 0.021079 0.106456  
2002-03-26 07:47:45 51°13.752 2°55.704 19.421806 0.021079 0.106455  
2002-03-26 07:47:50 51°13.76 2°55.7 19.421806 0.021079 0.106455  
2002-03-26 07:47:55 51°13.767 2°55.695 19.890649 0.021079 0.106454  
2002-03-26 07:47:59 51°13.772 2°55.691 20.394502 0.021079 0.106452  
2002-03-26 07:48:05 51°13.781 2°55.685 20.252156 0.021079 0.10645  
2002-03-26 07:48:10 51°13.789 2°55.679 19.991774 0.021079 0.106451  
2002-03-26 07:48:15 51°13.797 2°55.673 20.223442 0.021178 0.106933  
2002-03-26 07:48:20 51°13.805 2°55.667 20.223442 0.021178 0.106933  
2002-03-26 07:48:25 51°13.812 2°55.66 19.987524 0.021178 0.106932  
2002-03-26 07:48:30 51°13.821 2°55.653 19.856882 0.021079 0.106447  
2002-03-26 07:48:35 51°13.829 2°55.646 19.721324 0.021079 0.106447  
2002-03-26 07:48:40 51°13.837 2°55.639 19.820096 0.021079 0.106447  
2002-03-26 07:48:45 51°13.846 2°55.632 19.900213 0.021079 0.106444  
2002-03-26 07:48:49 51°13.854 2°55.627 19.900213 0.021079 0.106444  
2002-03-26 07:48:55 51°13.865 2°55.618 20.031058 0.021079 0.106444  
2002-03-26 07:49:00 51°13.874 2°55.61 19.963075 0.021079 0.106444  
2002-03-26 07:49:05 51°13.884 2°55.602 20.327473 0.021079 0.106443  
2002-03-26 07:49:10 51°13.894 2°55.594 20.126609 0.021079 0.106444  
2002-03-26 07:49:15 51°13.904 2°55.587 20.126609 0.021079 0.106444  
2002-03-26 07:49:19 51°13.913 2°55.58 19.500463 0.021178 0.106925  
2002-03-26 07:49:25 51°13.926 2°55.57 19.728515 0.021079 0.106441  
2002-03-26 07:49:30 51°13.938 2°55.561 19.937402 0.021079 0.106441  
2002-03-26 07:49:35 51°13.95 2°55.552 19.672598 0.021079 0.10644  
2002-03-26 07:49:40 51°13.962 2°55.543 19.846055 0.021079 0.106439  
2002-03-26 07:49:45 51°13.974 2°55.534 19.846055 0.021079 0.106439  
2002-03-26 07:49:50 51°13.986 2°55.526 20.065591 0.021079 0.106439  
2002-03-26 07:49:55 51°13.997 2°55.517 19.975301 0.021178 0.106922  
2002-03-26 07:50:00 51°14.008 2°55.51 20.173206 0.021079 0.106437  
2002-03-26 07:50:05 51°14.019 2°55.502 19.466345 0.021079 0.106439  
2002-03-26 07:50:10 51°14.029 2°55.495 20.456603 0.021079 0.106437  
2002-03-26 07:50:15 51°14.04 2°55.488 19.648852 0.021079 0.106437  
2002-03-26 07:50:20 51°14.049 2°55.481 19.648852 0.021079 0.106437  
2002-03-26 07:50:25 51°14.059 2°55.474 20.405366 0.021079 0.106436  
2002-03-26 07:50:30 51°14.069 2°55.467 19.931651 0.021079 0.106436  
2002-03-26 07:50:35 51°14.078 2°55.46 20.032231 0.021178 0.106919  
2002-03-26 07:50:40 51°14.087 2°55.453 19.696457 0.021079 0.106435  
2002-03-26 07:50:45 51°14.097 2°55.446 20.152334 0.021079 0.106435  
2002-03-26 07:50:50 51°14.106 2°55.439 20.152334 0.021079 0.106435  
2002-03-26 07:50:55 51°14.116 2°55.431 19.359151 0.021079 0.106433  
2002-03-26 07:51:00 51°14.125 2°55.424 19.884327 0.021079 0.106433  
2002-03-26 07:51:05 51°14.135 2°55.415 20.272555 0.021178 0.106915  
2002-03-26 07:51:10 51°14.145 2°55.407 19.410504 0.021079 0.10643  
2002-03-26 07:51:15 51°14.156 2°55.397 19.734283 0.021079 0.10643  
2002-03-26 07:51:20 51°14.166 2°55.387 19.734283 0.021079 0.10643  
2002-03-26 07:51:25 51°14.177 2°55.376 19.493902 0.021079 0.10643  
2002-03-26 07:51:30 51°14.188 2°55.364 19.505476 0.021079 0.106428  
2002-03-26 07:51:35 51°14.199 2°55.352 19.587906 0.021079 0.106429  
2002-03-26 07:51:40 51°14.21 2°55.339 20.327916 0.021079 0.106429  
2002-03-26 07:51:45 51°14.22 2°55.325 19.737857 0.021079 0.106426  
2002-03-26 07:51:50 51°14.231 2°55.311 19.737857 0.021079 0.106426  
2002-03-26 07:51:55 51°14.241 2°55.296 20.342455 0.021079 0.106426  
2002-03-26 07:52:00 51°14.252 2°55.281 19.787309 0.021079 0.106425  
2002-03-26 07:52:05 51°14.262 2°55.265 19.686012 0.021079 0.106426  
2002-03-26 07:52:10 51°14.272 2°55.249 19.345511 0.021079 0.106425  
2002-03-26 07:52:15 51°14.282 2°55.232 19.984327 0.021079 0.106424  
2002-03-26 07:52:20 51°14.291 2°55.215 19.984327 0.021079 0.106424  
2002-03-26 07:52:25 51°14.3 2°55.197 19.582818 0.021178 0.106907  
2002-03-26 07:52:29 51°14.307 2°55.182 19.668898 0.021079 0.106422  
2002-03-26 07:52:35 51°14.317 2°55.159 19.866896 0.021079 0.106422  
2002-03-26 07:52:40 51°14.325 2°55.14 19.663369 0.021079 0.106421  
2002-03-26 07:52:45 51°14.333 2°55.121 19.957852 0.021079 0.106422  
2002-03-26 07:52:49 51°14.34 2°55.106 19.957852 0.021079 0.106422  
2002-03-26 07:52:55 51°14.35 2°55.083 20.288676 0.021178 0.106902  
2002-03-26 07:53:00 51°14.36 2°55.065 19.860166 0.021079 0.106417  
2002-03-26 07:53:05 51°14.37 2°55.049 19.900335 0.021079 0.106415  
2002-03-26 07:53:10 51°14.382 2°55.033 19.528781 0.021079 0.106411  
2002-03-26 07:53:15 51°14.393 2°55.018 19.528781 0.021079 0.106411  
2002-03-26 07:53:20 51°14.406 2°55.004 19.504865 0.021079 0.106405  
2002-03-26 07:53:25 51°14.418 2°54.99 19.777243 0.021178 0.106891  
2002-03-26 07:53:30 51°14.43 2°54.975 19.812144 0.021079 0.106409  
2002-03-26 07:53:35 51°14.443 2°54.962 19.778786 0.021079 0.106409  
2002-03-26 07:53:40 51°14.456 2°54.948 19.429884 0.021079 0.10641  
2002-03-26 07:53:45 51°14.469 2°54.934 20.028106 0.021178 0.106892  
2002-03-26 07:53:49 51°14.479 2°54.923 20.028106 0.021178 0.106892  
2002-03-26 07:53:55 51°14.494 2°54.906 19.265003 0.021079 0.106409  
2002-03-26 07:54:00 51°14.507 2°54.892 19.565313 0.021178 0.106892  
2002-03-26 07:54:05 51°14.52 2°54.877 19.568448 0.021178 0.106891  
2002-03-26 07:54:10 51°14.533 2°54.863 19.798592 0.021079 0.106406  
2002-03-26 07:54:15 51°14.545 2°54.849 19.801554 0.021178 0.106889  
2002-03-26 07:54:20 51°14.559 2°54.834 19.801554 0.021178 0.106889  
2002-03-26 07:54:25 51°14.572 2°54.819 19.671175 0.021178 0.106889  
2002-03-26 07:54:30 51°14.585 2°54.805 19.470422 0.021079 0.106403  
2002-03-26 07:54:35 51°14.598 2°54.79 19.203926 0.021079 0.106403  
2002-03-26 07:54:40 51°14.611 2°54.776 19.60561 0.021079 0.106403  
2002-03-26 07:54:45 51°14.625 2°54.761 19.93963 0.021178 0.106885  
2002-03-26 07:54:50 51°14.638 2°54.746 19.93963 0.021178 0.106885  
2002-03-26 07:54:55 51°14.652 2°54.732 19.57313 0.021079 0.106402  
2002-03-26 07:55:00 51°14.665 2°54.717 19.518882 0.021079 0.1064  
2002-03-26 07:55:05 51°14.679 2°54.702 19.344449 0.021079 0.106399  
2002-03-26 07:55:10 51°14.692 2°54.687 19.506372 0.021079 0.106399  
2002-03-26 07:55:15 51°14.705 2°54.672 19.370584 0.021079 0.106399  
2002-03-26 07:55:20 51°14.719 2°54.658 19.370584 0.021079 0.106399  
2002-03-26 07:55:25 51°14.732 2°54.643 13.17381 0.021079 0.106656  
2002-03-26 07:55:30 51°14.746 2°54.629 12.073773 0.021178 0.107243  
2002-03-26 07:55:35 51°14.76 2°54.616 11.567074 3.090747 20.877761  
2002-03-26 07:55:40 51°14.775 2°54.603 11.104666 3.299352 23.584525  
2002-03-26 07:55:45 51°14.789 2°54.591 10.885058 3.257403 23.97762  
2002-03-26 07:55:50 51°14.804 2°54.578 10.885058 3.257403 23.97762  
2002-03-26 07:55:55 51°14.818 2°54.567 10.600843 3.308998 25.386631  
2002-03-26 07:56:00 51°14.833 2°54.555 10.834648 3.316632 26.810894  
2002-03-26 07:56:05 51°14.848 2°54.543 10.546168 3.298815 27.363497  
2002-03-26 07:56:10 51°14.862 2°54.531 10.609394 3.342193 28.4448  
2002-03-26 07:56:15 51°14.877 2°54.519 10.73631 3.367141 29.128732  
2002-03-26 07:56:20 51°14.892 2°54.507 10.73631 3.367141 29.128732  
2002-03-26 07:56:25 51°14.906 2°54.494 10.340264 3.388081 29.706305  
2002-03-26 07:56:30 51°14.921 2°54.482 10.342037 3.390789 30.024486  
2002-03-26 07:56:35 51°14.935 2°54.469 10.522769 3.381376 30.08452  
2002-03-26 07:56:39 51°14.947 2°54.459 10.620498 3.389591 30.31469  
2002-03-26 07:56:44 51°14.961 2°54.446 10.16698 3.398208 30.515892  
2002-03-26 07:56:49 51°14.976 2°54.434 10.16698 3.398208 30.515892  
2002-03-26 07:56:55 51°14.992 2°54.418 10.039985 3.391998 30.525465  
2002-03-26 07:57:00 51°15.007 2°54.405 10.524397 3.385187 30.518177  
2002-03-26 07:57:05 51°15.021 2°54.391 10.230105 3.38619 30.57816  
2002-03-26 07:57:10 51°15.036 2°54.379 10.2144 3.397109 30.754417  
2002-03-26 07:57:15 51°15.051 2°54.365 10.335832 3.397811 30.801623  
2002-03-26 07:57:19 51°15.063 2°54.356 10.335832 3.397811 30.801623  
2002-03-26 07:57:25 51°15.081 2°54.339 10.487352 3.396108 30.826845  
2002-03-26 07:57:30 51°15.097 2°54.327 10.125284 3.397712 30.885466  
2002-03-26 07:57:35 51°15.111 2°54.312 10.051421 3.394807 30.880594  
2002-03-26 07:57:40 51°15.127 2°54.3 9.970529 3.393806 30.906121  
2002-03-26 07:57:45 51°15.142 2°54.285 10.239265 3.3903 30.893094  
2002-03-26 07:57:50 51°15.158 2°54.273 10.239265 3.3903 30.893094  
2002-03-26 07:57:54 51°15.17 2°54.26 9.953728 3.383789 30.865067  
2002-03-26 07:58:00 51°15.19 2°54.245 10.091946 3.382287 30.87298  
2002-03-26 07:58:05 51°15.205 2°54.228 10.149949 3.37788 30.845882  
2002-03-26 07:58:10 51°15.221 2°54.215 10.471987 3.378281 30.873785  
2002-03-26 07:58:15 51°15.237 2°54.199 10.077987 3.373874 30.855787  
2002-03-26 07:58:20 51°15.253 2°54.185 10.077987 3.373874 30.855787  
2002-03-26 07:58:25 51°15.269 2°54.169 9.996613 3.372772 30.859362  
2002-03-26 07:58:30 51°15.286 2°54.156 10.058356 3.370068 30.845975  
2002-03-26 07:58:35 51°15.302 2°54.14 9.947814 3.368866 30.842911  
2002-03-26 07:58:40 51°15.318 2°54.127 10.166653 3.370269 30.869105  
2002-03-26 07:58:45 51°15.334 2°54.111 10.039188 3.371871 30.898061  
2002-03-26 07:58:50 51°15.351 2°54.097 10.039188 3.371871 30.898061  
2002-03-26 07:58:55 51°15.367 2°54.081 9.933872 3.368466 30.869799  
2002-03-26 07:59:00 51°15.383 2°54.067 9.811172 3.369568 30.894387  
2002-03-26 07:59:04 51°15.397 2°54.056 9.961754 3.367464 30.875118  
2002-03-26 07:59:10 51°15.416 2°54.038 10.05606 3.368566 30.896193  
2002-03-26 07:59:15 51°15.433 2°54.023 10.253142 3.367364 30.893847  
2002-03-26 07:59:20 51°15.449 2°54.009 10.253142 3.367364 30.893847  
2002-03-26 07:59:25 51°15.466 2°53.994 9.905931 3.367164 30.898867  
2002-03-26 07:59:30 51°15.482 2°53.979 9.994549 3.366163 30.89503  
2002-03-26 07:59:35 51°15.499 2°53.965 10.133195 3.365061 30.896528  
2002-03-26 07:59:40 51°15.515 2°53.949 10.124582 3.365562 30.902333  
2002-03-26 07:59:44 51°15.529 2°53.939 10.270847 3.364761 30.90619  
2002-03-26 07:59:50 51°15.548 2°53.92 10.270847 3.364761 30.90619  
2002-03-26 07:59:55 51°15.565 2°53.906 10.010964 3.363659 30.901331  
2002-03-26 08:00:00 51°15.581 2°53.89 9.91199 3.363659 30.906281  
2002-03-26 08:00:05 51°15.598 2°53.877 10.309089 3.36406 30.914608  
2002-03-26 08:00:09 51°15.61 2°53.863 10.062011 3.362758 30.911246  
2002-03-26 08:00:15 51°15.63 2°53.846 10.133335 3.360153 30.884707  
2002-03-26 08:00:20 51°15.646 2°53.829 10.133335 3.360153 30.884707  
2002-03-26 08:00:25 51°15.663 2°53.816 9.930538 3.359252 30.874814  
2002-03-26 08:00:30 51°15.679 2°53.799 10.081079 3.357649 30.871207  
2002-03-26 08:00:35 51°15.696 2°53.786 9.616805 3.360053 30.895712  
2002-03-26 08:00:40 51°15.711 2°53.768 9.760587 3.359653 30.897289  
2002-03-26 08:00:45 51°15.729 2°53.756 9.95523 3.359352 30.901305  
2002-03-26 08:00:49 51°15.741 2°53.742 9.95523 3.359352 30.901305  
2002-03-26 08:00:55 51°15.761 2°53.726 9.977098 3.35785 30.891647  
2002-03-26 08:01:00 51°15.777 2°53.709 9.624211 3.357149 30.891577  
2002-03-26 08:01:05 51°15.794 2°53.696 9.81517 3.356848 30.892761  
2002-03-26 08:01:10 51°15.81 2°53.679 9.630626 3.357049 30.9026  
2002-03-26 08:01:15 51°15.827 2°53.666 9.950161 3.355747 30.89569  
2002-03-26 08:01:20 51°15.843 2°53.65 9.950161 3.355747 30.89569  
2002-03-26 08:01:25 51°15.859 2°53.635 10.082438 3.353844 30.882643  
2002-03-26 08:01:30 51°15.876 2°53.62 10.022967 3.354244 30.891695  
2002-03-26 08:01:35 51°15.892 2°53.605 10.095693 3.353543 30.895882  
2002-03-26 08:01:40 51°15.909 2°53.59 10.109413 3.352141 30.883688  
2002-03-26 08:01:45 51°15.925 2°53.575 10.320805 3.350138 30.870317  
2002-03-26 08:01:50 51°15.942 2°53.56 10.320805 3.350138 30.870317  
2002-03-26 08:01:55 51°15.957 2°53.544 10.023905 3.35154 30.881095  
2002-03-26 08:02:00 51°15.974 2°53.53 10.059715 3.356849 30.938168  
2002-03-26 08:02:05 51°15.99 2°53.514 9.868721 3.358952 30.962506  
2002-03-26 08:02:10 51°16.007 2°53.5 8.897756 3.360154 30.976214  
2002-03-26 08:02:15 51°16.023 2°53.483 8.923511 3.362258 30.994865  
2002-03-26 08:02:20 51°16.04 2°53.47 8.923511 3.362258 30.994865  
2002-03-26 08:02:25 51°16.055 2°53.453 8.896516 3.36366 31.011335  
2002-03-26 08:02:30 51°16.072 2°53.44 8.97318 3.368268 31.058439  
2002-03-26 08:02:35 51°16.088 2°53.422 8.966271 3.367166 31.045748  
2002-03-26 08:02:40 51°16.105 2°53.409 8.886831 3.371373 31.091617  
2002-03-26 08:02:45 51°16.121 2°53.392 8.884016 3.36957 31.074608  
2002-03-26 08:02:50 51°16.138 2°53.379 8.884016 3.36957 31.074608  
2002-03-26 08:02:55 51°16.154 2°53.362 8.893176 3.370672 31.090876  
2002-03-26 08:03:00 51°16.17 2°53.349 8.881344 3.372275 31.107268  
2002-03-26 08:03:05 51°16.187 2°53.332 8.916501 3.371974 31.10205  
2002-03-26 08:03:10 51°16.203 2°53.319 8.918695 3.371874 31.105314  
2002-03-26 08:03:15 51°16.22 2°53.303 9.073831 3.371574 31.110105  
2002-03-26 08:03:20 51°16.236 2°53.288 9.073831 3.371574 31.110105  
2002-03-26 08:03:25 51°16.252 2°53.273 8.994761 3.372175 31.113393  
2002-03-26 08:03:30 51°16.269 2°53.259 8.874234 3.373978 31.131125  
2002-03-26 08:03:35 51°16.285 2°53.244 8.867934 3.374679 31.14331  
2002-03-26 08:03:40 51°16.301 2°53.229 9.025001 3.373377 31.132131  
2002-03-26 08:03:45 51°16.318 2°53.216 8.952497 3.372575 31.127509  
2002-03-26 08:03:50 51°16.334 2°53.2 8.952497 3.372575 31.127509  
2002-03-26 08:03:55 51°16.351 2°53.187 8.949923 3.375881 31.161342  
2002-03-26 08:04:00 51°16.366 2°53.172 8.872134 3.377984 31.184308  
2002-03-26 08:04:05 51°16.383 2°53.159 8.958836 3.378485 31.192305  
2002-03-26 08:04:09 51°16.395 2°53.145 8.959932 3.379086 31.204199  
2002-03-26 08:04:15 51°16.416 2°53.131 8.883348 3.376382 31.17507  
2002-03-26 08:04:19 51°16.428 2°53.117 8.883348 3.376382 31.17507  
2002-03-26 08:04:25 51°16.448 2°53.102 8.926944 3.376783 31.182042  
2002-03-26 08:04:29 51°16.46 2°53.089 8.932142 3.378285 31.198146  
2002-03-26 08:04:35 51°16.479 2°53.073 8.937052 3.384295 31.258985  
2002-03-26 08:04:40 51°16.495 2°53.057 9.039378 3.384896 31.265861  
2002-03-26 08:04:45 51°16.511 2°53.045 8.895419 3.390506 31.31973  
2002-03-26 08:04:49 51°16.524 2°53.032 8.895419 3.390506 31.31973  
2002-03-26 08:04:55 51°16.543 2°53.016 8.96689 3.397418 31.390555  
2002-03-26 08:05:00 51°16.559 2°53.001 8.961267 3.399221 31.406868  
2002-03-26 08:05:05 51°16.575 2°52.987 8.882871 3.401524 31.426867  
2002-03-26 08:05:10 51°16.591 2°52.973 8.999905 3.404129 31.449945  
2002-03-26 08:05:15 51°16.607 2°52.958 8.914593 3.410239 31.516202  
2002-03-26 08:05:20 51°16.623 2°52.944 8.914593 3.410239 31.516202  
2002-03-26 08:05:24 51°16.635 2°52.931 8.948493 3.409638 31.507866  
2002-03-26 08:05:29 51°16.652 2°52.919 8.916501 3.412243 31.535293  
2002-03-26 08:05:35 51°16.67 2°52.9 8.941105 3.411842 31.535536  
2002-03-26 08:05:39 51°16.684 2°52.89 8.943059 3.412343 31.542849  
2002-03-26 08:05:45 51°16.702 2°52.871 8.887165 3.41024 31.521277  
2002-03-26 08:05:50 51°16.719 2°52.859 8.887165 3.41024 31.521277  
2002-03-26 08:05:55 51°16.734 2°52.842 8.970893 3.407936 31.499826  
2002-03-26 08:06:00 51°16.751 2°52.83 8.962458 3.409438 31.52031  
2002-03-26 08:06:05 51°16.767 2°52.815 8.84187 3.407034 31.496378  
2002-03-26 08:06:10 51°16.783 2°52.803 8.837287 3.405331 31.487609  
2002-03-26 08:06:15 51°16.798 2°52.787 8.904911 3.407836 31.514749  
2002-03-26 08:06:20 51°16.815 2°52.775 8.904911 3.407836 31.514749  
2002-03-26 08:06:25 51°16.83 2°52.759 8.978421 3.404129 31.482525  
2002-03-26 08:06:30 51°16.846 2°52.747 8.89165 3.40433 31.49038  
2002-03-26 08:06:35 51°16.862 2°52.733 8.812691 3.401124 31.464011  
2002-03-26 08:06:40 51°16.878 2°52.721 8.799172 3.401625 31.471325  
2002-03-26 08:06:45 51°16.894 2°52.707 8.875045 3.39842 31.444224  
2002-03-26 08:06:50 51°16.911 2°52.695 8.875045 3.39842 31.444224  
2002-03-26 08:06:55 51°16.927 2°52.683 8.789711 3.397719 31.442822  
2002-03-26 08:07:00 51°16.943 2°52.67 8.817611 3.399221 31.463322  
2002-03-26 08:07:05 51°16.96 2°52.658 8.899712 3.39842 31.460895  
2002-03-26 08:07:09 51°16.973 2°52.648 8.759314 3.395415 31.437284  
2002-03-26 08:07:15 51°16.994 2°52.635 8.90577 3.393011 31.415493  
2002-03-26 08:07:19 51°17.007 2°52.625 8.90577 3.393011 31.415493  
2002-03-26 08:07:25 51°17.027 2°52.613 8.779533 3.391208 31.404943  
2002-03-26 08:07:30 51°17.044 2°52.6 8.768731 3.394113 31.437684  
2002-03-26 08:07:35 51°17.061 2°52.59 8.751808 3.393312 31.43888  
2002-03-26 08:07:40 51°17.077 2°52.578 8.776187 3.39221 31.433359  
2002-03-26 08:07:45 51°17.095 2°52.568 8.774706 3.388504 31.399617  
2002-03-26 08:07:50 51°17.111 2°52.555 8.774706 3.388504 31.399617  
2002-03-26 08:07:55 51°17.128 2°52.546 8.844114 3.388203 31.407404  
2002-03-26 08:08:00 51°17.144 2°52.533 8.709289 3.388103 31.416532  
2002-03-26 08:08:05 51°17.162 2°52.523 8.696657 3.387001 31.412457  
2002-03-26 08:08:10 51°17.178 2°52.51 8.772172 3.384698 31.401095  
2002-03-26 08:08:15 51°17.195 2°52.5 8.690532 3.384898 31.415503  
2002-03-26 08:08:20 51°17.211 2°52.487 8.690532 3.384898 31.415503  
2002-03-26 08:08:25 51°17.228 2°52.476 8.639544 3.383396 31.408754  
2002-03-26 08:08:30 51°17.245 2°52.463 8.62685 3.378788 31.367849  
2002-03-26 08:08:35 51°17.262 2°52.452 8.736124 3.377386 31.364297  
2002-03-26 08:08:40 51°17.279 2°52.439 8.730767 3.376084 31.359598  
2002-03-26 08:08:45 51°17.295 2°52.429 8.689096 3.378087 31.39114  
2002-03-26 08:08:50 51°17.313 2°52.418 8.689096 3.378087 31.39114  
2002-03-26 08:08:55 51°17.33 2°52.409 8.648403 3.377286 31.389426  
2002-03-26 08:08:59 51°17.344 2°52.403 8.727945 3.372278 31.347249  
2002-03-26 08:09:04 51°17.361 2°52.395 8.597909 3.374381 31.375479  
2002-03-26 08:09:10 51°17.383 2°52.387 8.633844 3.374582 31.386277  
2002-03-26 08:09:15 51°17.401 2°52.381 8.635712 3.371477 31.357887  
2002-03-26 08:09:20 51°17.419 2°52.377 8.635712 3.371477 31.357887  
2002-03-26 08:09:25 51°17.437 2°52.373 8.666503 3.374582 31.398656  
2002-03-26 08:09:29 51°17.452 2°52.371 8.666455 3.374983 31.406434  
2002-03-26 08:09:35 51°17.473 2°52.367 8.674258 3.374983 31.407891  
2002-03-26 08:09:40 51°17.491 2°52.366 8.591103 3.371176 31.373707  
2002-03-26 08:09:45 51°17.51 2°52.362 8.710437 3.374883 31.416335  
2002-03-26 08:09:50 51°17.528 2°52.362 8.710437 3.374883 31.416335  
2002-03-26 08:09:55 51°17.546 2°52.358 8.627473 3.371176 31.379533  
2002-03-26 08:10:00 51°17.564 2°52.358 8.669615 3.37358 31.409454  
2002-03-26 08:10:05 51°17.582 2°52.352 8.587556 3.371878 31.394788  
2002-03-26 08:10:10 51°17.6 2°52.352 8.585639 3.374682 31.423749  
2002-03-26 08:10:15 51°17.618 2°52.347 8.62158 3.375584 31.433059  
2002-03-26 08:10:19 51°17.633 2°52.346 8.62158 3.375584 31.433059  
2002-03-26 08:10:25 51°17.655 2°52.341 8.580078 3.375684 31.434824  
2002-03-26 08:10:30 51°17.673 2°52.34 8.663247 3.373581 31.41383  
2002-03-26 08:10:35 51°17.691 2°52.336 8.776187 3.376786 31.449124  
2002-03-26 08:10:40 51°17.709 2°52.335 8.655778 3.377788 31.460932  
2002-03-26 08:10:44 51°17.723 2°52.333 8.627856 3.375884 31.442004  
2002-03-26 08:10:50 51°17.745 2°52.33 8.627856 3.375884 31.442004  
2002-03-26 08:10:55 51°17.763 2°52.329 8.576003 3.375183 31.437682  
2002-03-26 08:11:00 51°17.781 2°52.327 8.65482 3.37899 31.479929  
2002-03-26 08:11:05 51°17.799 2°52.326 8.61861 3.380492 31.493992  
2002-03-26 08:11:10 51°17.818 2°52.324 8.654294 3.380392 31.495883  
2002-03-26 08:11:15 51°17.836 2°52.324 8.663151 3.376486 31.455517  
2002-03-26 08:11:20 51°17.854 2°52.321 8.663151 3.376486 31.455517  
2002-03-26 08:11:25 51°17.872 2°52.322 8.618323 3.37929 31.48596  
2002-03-26 08:11:30 51°17.891 2°52.319 8.657645 3.380492 31.499846  
2002-03-26 08:11:35 51°17.909 2°52.32 8.616933 3.383297 31.529566  
2002-03-26 08:11:40 51°17.927 2°52.317 8.577442 3.381594 31.512698  
2002-03-26 08:11:44 51°17.941 2°52.317 8.580989 3.385 31.548634  
2002-03-26 08:11:50 51°17.963 2°52.314 8.580989 3.385 31.548634  
2002-03-26 08:11:55 51°17.981 2°52.315 8.57586 3.384499 31.54419  
2002-03-26 08:12:00 51°18 2°52.311 8.734928 3.382295 31.520677  
2002-03-26 08:12:05 51°18.018 2°52.312 8.654102 3.381494 31.514591  
2002-03-26 08:12:10 51°18.036 2°52.309 8.567661 3.383698 31.535173  
2002-03-26 08:12:15 51°18.054 2°52.309 8.613627 3.381995 31.520501  
2002-03-26 08:12:20 51°18.072 2°52.308 8.613627 3.381995 31.520501  
2002-03-26 08:12:25 51°18.091 2°52.31 8.610465 3.383097 31.53409  
2002-03-26 08:12:30 51°18.109 2°52.312 8.691584 3.3847 31.549193  
2002-03-26 08:12:35 51°18.126 2°52.319 8.659178 3.386302 31.566497  
2002-03-26 08:12:40 51°18.143 2°52.329 8.647781 3.388105 31.586609  
2002-03-26 08:12:45 51°18.159 2°52.341 8.60874 3.388706 31.594293  
2002-03-26 08:12:50 51°18.175 2°52.356 8.60874 3.388706 31.594293  
2002-03-26 08:12:55 51°18.189 2°52.374 8.605721 3.386302 31.571634  
2002-03-26 08:12:59 51°18.2 2°52.389 8.573894 3.389808 31.607158  
2002-03-26 08:13:05 51°18.213 2°52.416 8.563249 3.388506 31.592956  
2002-03-26 08:13:09 51°18.222 2°52.434 8.679619 3.390509 31.610736  
2002-03-26 08:13:15 51°18.232 2°52.465 8.569195 3.385501 31.559679  
2002-03-26 08:13:20 51°18.239 2°52.491 8.569195 3.385501 31.559679  
2002-03-26 08:13:25 51°18.245 2°52.518 8.671099 3.385902 31.563822  
2002-03-26 08:13:30 51°18.252 2°52.545 8.58957 3.389808 31.604954  
2002-03-26 08:13:35 51°18.26 2°52.57 8.625509 3.391211 31.621663  
2002-03-26 08:13:40 51°18.269 2°52.595 8.625413 3.392112 31.631723  
2002-03-26 08:13:45 51°18.28 2°52.619 8.622299 3.387104 31.583592  
2002-03-26 08:13:49 51°18.288 2°52.638 8.622299 3.387104 31.583592  
2002-03-26 08:13:55 51°18.302 2°52.665 8.619664 3.390509 31.619555  
2002-03-26 08:14:00 51°18.314 2°52.688 8.625652 3.394216 31.66158  
2002-03-26 08:14:05 51°18.325 2°52.711 8.616789 3.39061 31.629416  
2002-03-26 08:14:09 51°18.333 2°52.73 8.573175 3.393515 31.663896  
2002-03-26 08:14:15 51°18.346 2°52.759 8.573462 3.392112 31.655271  
2002-03-26 08:14:20 51°18.356 2°52.784 8.573462 3.392112 31.655271  
2002-03-26 08:14:25 51°18.365 2°52.809 8.610896 3.393315 31.670662  
2002-03-26 08:14:30 51°18.374 2°52.835 8.651516 3.388807 31.625469  
2002-03-26 08:14:35 51°18.382 2°52.862 8.653671 3.392113 31.6619  
2002-03-26 08:14:40 51°18.39 2°52.889 8.613292 3.387505 31.61346  
2002-03-26 08:14:45 51°18.397 2°52.916 8.572072 3.392814 31.670635  
2002-03-26 08:14:50 51°18.405 2°52.944 8.572072 3.392814 31.670635  
2002-03-26 08:14:55 51°18.411 2°52.971 8.605721 3.391612 31.658925  
2002-03-26 08:14:59 51°18.417 2°52.993 8.569435 3.392413 31.669434  
2002-03-26 08:15:05 51°18.424 2°53.027 8.560756 3.391111 31.656686  
2002-03-26 08:15:10 51°18.432 2°53.054 8.563441 3.389208 31.636978  
2002-03-26 08:15:15 51°18.438 2°53.082 8.521566 3.388406 31.630153  
2002-03-26 08:15:20 51°18.445 2°53.11 8.521566 3.388406 31.630153  
2002-03-26 08:15:25 51°18.452 2°53.138 8.67579 3.385501 31.600811  
2002-03-26 08:15:30 51°18.459 2°53.165 8.555385 3.385401 31.602717  
2002-03-26 08:15:35 51°18.465 2°53.193 8.554761 3.389809 31.649831  
2002-03-26 08:15:40 51°18.473 2°53.22 8.54608 3.386904 31.623428  
2002-03-26 08:15:45 51°18.48 2°53.248 8.549486 3.382897 31.581935  
2002-03-26 08:15:49 51°18.486 2°53.269 8.549486 3.382897 31.581935  
2002-03-26 08:15:54 51°18.492 2°53.297 8.58468 3.383598 31.590666  
2002-03-26 08:16:00 51°18.502 2°53.329 8.588084 3.387405 31.630824  
2002-03-26 08:16:05 51°18.509 2°53.357 8.587221 3.386904 31.62711  
2002-03-26 08:16:10 51°18.517 2°53.384 8.541907 3.382697 31.58795  
2002-03-26 08:16:15 51°18.523 2°53.411 8.584441 3.383498 31.599194  
2002-03-26 08:16:20 51°18.532 2°53.438 8.584441 3.383498 31.599194  
2002-03-26 08:16:25 51°18.538 2°53.466 8.536535 3.379391 31.56033  
2002-03-26 08:16:30 51°18.546 2°53.493 8.539125 3.382797 31.597082  
2002-03-26 08:16:35 51°18.552 2°53.52 8.655586 3.384901 31.620349  
2002-03-26 08:16:40 51°18.56 2°53.548 8.569627 3.3843 31.614859  
2002-03-26 08:16:45 51°18.566 2°53.576 8.571928 3.382897 31.601801  
2002-03-26 08:16:50 51°18.573 2°53.603 8.571928 3.382897 31.601801  
2002-03-26 08:16:55 51°18.579 2°53.631 8.49325 3.382296 31.595573  
2002-03-26 08:17:00 51°18.587 2°53.658 8.486433 3.381495 31.589479  
2002-03-26 08:17:05 51°18.592 2°53.687 8.566031 3.380794 31.585157  
2002-03-26 08:17:10 51°18.599 2°53.714 8.489122 3.380794 31.585157  
2002-03-26 08:17:15 51°18.605 2°53.742 8.640166 3.37839 31.563925  
2002-03-26 08:17:20 51°18.612 2°53.769 8.640166 3.37839 31.563925  
2002-03-26 08:17:25 51°18.619 2°53.797 8.482688 3.377689 31.55813  
2002-03-26 08:17:30 51°18.625 2°53.826 8.597334 3.378089 31.563753  
2002-03-26 08:17:35 51°18.631 2°53.853 8.563873 3.373982 31.521932  
2002-03-26 08:17:40 51°18.639 2°53.88 8.593452 3.375886 31.544594  
2002-03-26 08:17:45 51°18.645 2°53.909 8.467947 3.372881 31.515658  
2002-03-26 08:17:50 51°18.652 2°53.936 8.467947 3.372881 31.515658  
2002-03-26 08:17:55 51°18.658 2°53.964 8.512593 3.373782 31.527205  
2002-03-26 08:18:00 51°18.666 2°53.991 8.54891 3.373081 31.520673  
2002-03-26 08:18:05 51°18.672 2°54.02 8.55596 3.371879 31.51042  
2002-03-26 08:18:09 51°18.678 2°54.042 8.509809 3.371178 31.506091  
2002-03-26 08:18:15 51°18.686 2°54.075 8.510097 3.368774 31.480442  
2002-03-26 08:18:20 51°18.693 2°54.102 8.510097 3.368774 31.480442  
2002-03-26 08:18:25 51°18.699 2°54.13 8.465834 3.368974 31.485455  
2002-03-26 08:18:30 51°18.707 2°54.158 8.547999 3.367171 31.469705  
2002-03-26 08:18:35 51°18.713 2°54.186 8.46665 3.367171 31.471907  
2002-03-26 08:18:40 51°18.72 2°54.213 8.58214 3.365969 31.457981  
2002-03-26 08:18:45 51°18.727 2°54.241 8.579263 3.362263 31.420306  
2002-03-26 08:18:49 51°18.733 2°54.262 8.579263 3.362263 31.420306  
2002-03-26 08:18:55 51°18.74 2°54.296 8.455268 3.364667 31.445952  
2002-03-26 08:19:00 51°18.748 2°54.323 8.491666 3.365068 31.451572  
2002-03-26 08:19:05 51°18.754 2°54.351 8.570777 3.363666 31.436305  
2002-03-26 08:19:10 51°18.761 2°54.378 8.524829 3.363265 31.434352  
2002-03-26 08:19:15 51°18.767 2°54.406 8.482688 3.361462 31.417132  
2002-03-26 08:19:20 51°18.775 2°54.433 8.482688 3.361462 31.417132  
2002-03-26 08:19:25 51°18.78 2°54.461 8.560852 3.360661 31.411025  
2002-03-26 08:19:30 51°18.788 2°54.489 8.560085 3.359759 31.403148  
2002-03-26 08:19:35 51°18.793 2°54.517 8.599347 3.358357 31.392276  
2002-03-26 08:19:40 51°18.801 2°54.545 8.516576 3.356554 31.375785  
2002-03-26 08:19:45 51°18.806 2°54.573 8.518015 3.351045 31.322347  
2002-03-26 08:19:49 51°18.812 2°54.594 8.518015 3.351045 31.322347  
2002-03-26 08:19:55 51°18.819 2°54.628 8.509617 3.350744 31.320695  
2002-03-26 08:20:00 51°18.826 2°54.656 9.525781 3.351446 31.331618  
2002-03-26 08:20:05 51°18.832 2°54.684 9.600384 3.349843 31.316469  
2002-03-26 08:20:09 51°18.838 2°54.705 9.949175 3.346437 31.282633  
2002-03-26 08:20:15 51°18.845 2°54.739 9.718018 3.344635 31.265408  
2002-03-26 08:20:20 51°18.852 2°54.767 9.718018 3.344635 31.265408  
2002-03-26 08:20:25 51°18.858 2°54.795 9.790707 2.431589 22.004008  
2002-03-26 08:20:30 51°18.865 2°54.823 10.098409 3.344635 31.268328  
2002-03-26 08:20:35 51°18.871 2°54.851 9.669104 3.343132 31.254216  
2002-03-26 08:20:40 51°18.877 2°54.88 9.750606 3.342932 31.255058  
2002-03-26 08:20:45 51°18.883 2°54.908 9.515575 3.34173 31.2426  
2002-03-26 08:20:50 51°18.888 2°54.936 9.515575 3.34173 31.2426  
2002-03-26 08:20:55 51°18.894 2°54.965 10.282663 3.341429 31.240945  
2002-03-26 08:21:00 51°18.9 2°54.993 9.511181 3.340528 31.231601  
2002-03-26 08:21:05 51°18.906 2°55.022 10.092321 3.338625 31.213335  
2002-03-26 08:21:10 51°18.911 2°55.05 10.050483 3.338525 31.213755  
2002-03-26 08:21:15 51°18.917 2°55.079 9.316435 3.337122 31.202136  
2002-03-26 08:21:20 51°18.923 2°55.107 9.316435 3.337122 31.202136  
2002-03-26 08:21:25 51°18.929 2°55.135 9.589341 3.336221 31.192064  
2002-03-26 08:21:30 51°18.935 2°55.164 9.96898 3.336221 31.194979  
2002-03-26 08:21:35 51°18.941 2°55.192 9.894 3.334118 31.174634  
2002-03-26 08:21:40 51°18.947 2°55.221 9.468921 3.333517 31.169861  
2002-03-26 08:21:45 51°18.953 2°55.249 9.697194 3.332816 31.162594  
2002-03-26 08:21:50 51°18.959 2°55.278 9.697194 3.332816 31.162594  
2002-03-26 08:21:55 51°18.964 2°55.306 9.735397 3.332315 31.158859  
2002-03-26 08:22:00 51°18.97 2°55.335 9.26793 3.331514 31.15201  
2002-03-26 08:22:05 51°18.976 2°55.363 9.850154 3.330412 31.142045  
2002-03-26 08:22:10 51°18.983 2°55.391 9.926641 3.32961 31.134468  
2002-03-26 08:22:15 51°18.988 2°55.42 9.728757 3.328308 31.120245  
2002-03-26 08:22:20 51°18.995 2°55.448 9.728757 3.328308 31.120245  
2002-03-26 08:22:24 51°18.999 2°55.471 9.803457 3.327808 31.117236  
2002-03-26 08:22:30 51°19.007 2°55.505 9.457146 3.327307 31.112045  
2002-03-26 08:22:35 51°19.013 2°55.534 9.452369 3.325604 31.096578  
2002-03-26 08:22:40 51°19.019 2°55.562 9.333306 3.324002 31.07997  
2002-03-26 08:22:44 51°19.023 2°55.585 9.252417 3.3231 31.071354  
2002-03-26 08:22:49 51°19.03 2°55.614 9.252417 3.3231 31.071354  
2002-03-26 08:22:55 51°19.037 2°55.648 9.329089 3.322399 31.064814  
2002-03-26 08:23:00 51°19.044 2°55.675 9.171808 3.320296 31.04592  
2002-03-26 08:23:05 51°19.049 2°55.704 9.135648 3.318893 31.033565  
2002-03-26 08:23:10 51°19.056 2°55.732 9.29259 3.317792 31.023597  
2002-03-26 08:23:15 51°19.062 2°55.761 9.444139 3.316189 31.00844  
2002-03-26 08:23:20 51°19.068 2°55.789 9.444139 3.316189 31.00844  
2002-03-26 08:23:25 51°19.074 2°55.818 9.824529 3.314486 30.992969  
2002-03-26 08:23:30 51°19.08 2°55.846 9.433447 3.313585 30.985801  
2002-03-26 08:23:35 51°19.086 2°55.875 9.431886 3.311582 30.967939  
2002-03-26 08:23:40 51°19.092 2°55.904 9.477952 3.31008 30.95237  
2002-03-26 08:23:45 51°19.099 2°55.932 9.159884 3.309178 30.943029  
2002-03-26 08:23:50 51°19.104 2°55.96 9.159884 3.309178 30.943029  
2002-03-26 08:23:55 51°19.111 2°55.989 9.35202 3.307776 30.929223  
2002-03-26 08:23:59 51°19.115 2°56.012 9.538394 3.306875 30.922775  
2002-03-26 08:24:05 51°19.123 2°56.046 9.45899 3.305072 30.904817  
2002-03-26 08:24:10 51°19.129 2°56.074 9.655008 3.303369 30.890787  
2002-03-26 08:24:15 51°19.135 2°56.103 9.301645 3.302267 30.880093  
2002-03-26 08:24:20 51°19.141 2°56.131 9.301645 3.302267 30.880093  
2002-03-26 08:24:25 51°19.148 2°56.159 9.416886 3.300965 30.868046  
2002-03-26 08:24:30 51°19.154 2°56.188 9.146912 3.299864 30.858796  
2002-03-26 08:24:35 51°19.16 2°56.217 9.456437 3.29726 30.8347  
2002-03-26 08:24:40 51°19.166 2°56.245 9.449862 3.295757 30.822017  
2002-03-26 08:24:45 51°19.172 2°56.274 9.101751 3.293253 30.798956  
2002-03-26 08:24:50 51°19.179 2°56.302 9.101751 3.293253 30.798956  
2002-03-26 08:24:55 51°19.185 2°56.331 9.373807 3.292252 30.789299  
2002-03-26 08:25:00 51°19.191 2°56.359 9.565501 3.289848 30.766554  
2002-03-26 08:25:05 51°19.197 2°56.387 9.835016 3.288747 30.756579  
2002-03-26 08:25:10 51°19.203 2°56.415 9.215353 3.287244 30.743172  
2002-03-26 08:25:15 51°19.209 2°56.443 9.294629 3.285441 30.724494  
2002-03-26 08:25:20 51°19.216 2°56.472 9.294629 3.285441 30.724494  
2002-03-26 08:25:25 51°19.222 2°56.5 9.451281 3.28464 30.71835  
2002-03-26 08:25:30 51°19.228 2°56.528 9.519828 3.283438 30.705898  
2002-03-26 08:25:35 51°19.234 2°56.557 9.487596 3.281435 30.685148  
2002-03-26 08:25:40 51°19.241 2°56.586 9.600951 3.281235 30.685227  
2002-03-26 08:25:45 51°19.247 2°56.614 9.712789 3.280334 30.675889  
2002-03-26 08:25:50 51°19.253 2°56.642 9.712789 3.280334 30.675889  
2002-03-26 08:25:55 51°19.259 2°56.671 9.596326 3.278531 30.657932  
2002-03-26 08:26:00 51°19.265 2°56.699 9.48164 3.27823 30.65482  
2002-03-26 08:26:05 51°19.272 2°56.727 9.484429 3.276027 30.631998  
2002-03-26 08:26:10 51°19.278 2°56.756 9.365993 3.274024 30.611253  
2002-03-26 08:26:15 51°19.284 2°56.784 9.369071 3.27132 30.585397  
2002-03-26 08:26:20 51°19.29 2°56.813 9.369071 3.27132 30.585397  
2002-03-26 08:26:25 51°19.297 2°56.841 9.054227 3.268315 30.554284  
2002-03-26 08:26:30 51°19.303 2°56.869 9.59642 3.266513 30.537048  
2002-03-26 08:26:35 51°19.309 2°56.898 9.791084 3.263408 30.506332  
2002-03-26 08:26:40 51°19.315 2°56.926 9.67938 3.262507 30.497714  
2002-03-26 08:26:45 51°19.322 2°56.955 9.404723 3.260203 30.473155  
2002-03-26 08:26:50 51°19.328 2°56.983 9.404723 3.260203 30.473155  
2002-03-26 08:26:55 51°19.334 2°57.012 9.099849 3.259803 30.468295  
2002-03-26 08:27:00 51°19.34 2°57.04 9.329468 3.2581 30.451385  
2002-03-26 08:27:05 51°19.347 2°57.068 9.333306 3.255797 30.428256  
2002-03-26 08:27:10 51°19.353 2°57.097 9.524458 3.255396 30.42411  
2002-03-26 08:27:15 51°19.36 2°57.125 9.297189 3.254294 30.411285  
2002-03-26 08:27:20 51°19.365 2°57.154 9.297189 3.254294 30.411285  
2002-03-26 08:27:25 51°19.372 2°57.182 9.376601 3.252391 30.391595  
2002-03-26 08:27:30 51°19.378 2°57.211 8.987949 3.252492 30.39192  
2002-03-26 08:27:35 51°19.384 2°57.239 9.415845 3.25109 30.376701  
2002-03-26 08:27:40 51°19.39 2°57.268 9.022573 3.250188 30.365954  
2002-03-26 08:27:45 51°19.397 2°57.296 9.083488 3.249187 30.354883  
2002-03-26 08:27:50 51°19.402 2°57.325 9.083488 3.249187 30.354883  
2002-03-26 08:27:55 51°19.409 2°57.354 9.10042 3.247785 30.339669  
2002-03-26 08:28:00 51°19.415 2°57.382 9.2979 3.246282 30.323421  
2002-03-26 08:28:05 51°19.421 2°57.411 9.644775 3.246082 30.322059  
2002-03-26 08:28:09 51°19.426 2°57.434 9.72659 3.24458 30.305103  
2002-03-26 08:28:15 51°19.433 2°57.468 9.452606 3.243078 30.288859  
2002-03-26 08:28:20 51°19.44 2°57.496 9.452606 3.243078 30.288859  
2002-03-26 08:28:25 51°19.446 2°57.525 9.34264 3.242577 30.28439  
2002-03-26 08:28:30 51°19.452 2°57.554 9.494923 3.241075 30.269564  
2002-03-26 08:28:35 51°19.458 2°57.583 9.229356 3.240273 30.259864  
2002-03-26 08:28:40 51°19.465 2°57.611 9.189714 3.239172 30.249181  
2002-03-26 08:28:45 51°19.47 2°57.64 9.464429 3.238371 30.24019  
2002-03-26 08:28:50 51°19.477 2°57.668 9.464429 3.238371 30.24019  
2002-03-26 08:28:55 51°19.483 2°57.697 9.77466 3.237369 30.228422  
2002-03-26 08:29:00 51°19.49 2°57.726 9.54274 3.236167 30.215292  
2002-03-26 08:29:05 51°19.495 2°57.755 9.547321 3.235967 30.212514  
2002-03-26 08:29:10 51°19.502 2°57.783 9.583771 3.235366 30.20489  
2002-03-26 08:29:15 51°19.508 2°57.812 9.623456 3.235266 30.201735  
2002-03-26 08:29:20 51°19.515 2°57.84 9.623456 3.235266 30.201735  
2002-03-26 08:29:25 51°19.521 2°57.869 8.963507 3.234865 30.196182  
2002-03-26 08:29:30 51°19.528 2°57.897 9.394451 3.233764 30.18268  
2002-03-26 08:29:35 51°19.533 2°57.926 8.949399 3.234064 30.185785  
2002-03-26 08:29:40 51°19.54 2°57.955 9.130135 3.233864 30.182303  
2002-03-26 08:29:45 51°19.546 2°57.983 9.125619 3.232762 30.170215  
2002-03-26 08:29:49 51°19.551 2°58.006 9.125619 3.232762 30.170215  
2002-03-26 08:29:55 51°19.559 2°58.041 9.045661 3.232762 30.169509  
2002-03-26 08:30:00 51°19.565 2°58.07 9.012478 3.23106 30.15192  
2002-03-26 08:30:05 51°19.571 2°58.098 9.051277 3.231861 30.158787  
2002-03-26 08:30:10 51°19.577 2°58.127 9.087911 3.23136 30.152204  
2002-03-26 08:30:15 51°19.584 2°58.156 9.014764 3.230259 30.139415  
2002-03-26 08:30:20 51°19.59 2°58.184 9.014764 3.230259 30.139415  
2002-03-26 08:30:25 51°19.596 2°58.212 9.053942 3.230559 30.141108  
2002-03-26 08:30:30 51°19.602 2°58.242 8.777812 3.229157 30.127332  
2002-03-26 08:30:35 51°19.609 2°58.27 9.091574 3.228957 30.125263  
2002-03-26 08:30:40 51°19.615 2°58.299 9.092858 3.228456 30.117979  
2002-03-26 08:30:45 51°19.621 2°58.328 9.172948 3.227454 30.108341  
2002-03-26 08:30:50 51°19.627 2°58.357 9.172948 3.227454 30.108341  
2002-03-26 08:30:54 51°19.632 2°58.38 9.484949 3.225952 30.091421  
2002-03-26 08:31:00 51°19.639 2°58.414 9.096092 3.225752 30.08865  
2002-03-26 08:31:04 51°19.644 2°58.436 9.015526 3.22435 30.07347  
2002-03-26 08:31:10 51°19.651 2°58.471 9.170905 3.222347 30.05209  
2002-03-26 08:31:15 51°19.658 2°58.5 9.138357 3.221446 30.04419  
2002-03-26 08:31:20 51°19.664 2°58.529 9.138357 3.221446 30.04419  
2002-03-26 08:31:25 51°19.67 2°58.557 8.978516 3.219944 30.027279  
2002-03-26 08:31:30 51°19.676 2°58.586 8.706083 3.219042 30.016573  
2002-03-26 08:31:35 51°19.682 2°58.615 8.981232 3.21754 30.00177  
2002-03-26 08:31:40 51°19.689 2°58.644 9.446031 3.216038 29.986968  
2002-03-26 08:31:45 51°19.695 2°58.672 9.754326 3.214636 29.971799  
2002-03-26 08:31:50 51°19.702 2°58.701 9.754326 3.214636 29.971799  
2002-03-26 08:31:55 51°19.708 2°58.73 9.488305 3.213835 29.962831  
2002-03-26 08:32:00 51°19.715 2°58.759 9.331316 3.212633 29.949731  
2002-03-26 08:32:05 51°19.72 2°58.788 9.333022 3.211331 29.936999  
2002-03-26 08:32:09 51°19.726 2°58.811 9.21972 3.21033 29.925967  
2002-03-26 08:32:15 51°19.733 2°58.845 9.490716 3.209328 29.915635  
2002-03-26 08:32:20 51°19.74 2°58.874 9.490716 3.209328 29.915635  
2002-03-26 08:32:25 51°19.746 2°58.903 9.411065 3.208327 29.905305  
2002-03-26 08:32:30 51°19.752 2°58.932 9.296762 3.207426 29.895308  
2002-03-26 08:32:35 51°19.758 2°58.961 9.334159 3.206925 29.889445  
2002-03-26 08:32:39 51°19.763 2°58.984 9.449295 3.205924 29.878417  
2002-03-26 08:32:45 51°19.77 2°59.019 9.256687 3.205523 29.873587  
2002-03-26 08:32:49 51°19.775 2°59.041 9.256687 3.205523 29.873587  
2002-03-26 08:32:55 51°19.783 2°59.076 9.604679 3.204922 29.866692  
2002-03-26 08:33:00 51°19.789 2°59.105 9.722445 3.204221 29.858765  
2002-03-26 08:33:05 51°19.795 2°59.134 9.529797 3.20352 29.852932  
2002-03-26 08:33:10 51°19.801 2°59.163 9.375086 3.20312 29.847406  
2002-03-26 08:33:15 51°19.808 2°59.192 9.759598 3.202419 29.840875  
2002-03-26 08:33:20 51°19.814 2°59.221 9.759598 3.202419 29.840875  
2002-03-26 08:33:25 51°19.821 2°59.25 9.295624 3.201818 29.835376  
2002-03-26 08:33:30 51°19.827 2°59.279 9.681171 3.201417 29.830548  
2002-03-26 08:33:35 51°19.833 2°59.307 9.604537 3.200916 29.824688  
2002-03-26 08:33:40 51°19.84 2°59.337 9.603829 3.199514 29.810233  
2002-03-26 08:33:45 51°19.846 2°59.365 9.099754 3.199615 29.810569  
2002-03-26 08:33:49 51°19.851 2°59.389 9.099754 3.199615 29.810569  
2002-03-26 08:33:55 51°19.859 2°59.423 9.526868 3.198813 29.803006  
2002-03-26 08:34:00 51°19.865 2°59.453 9.875347 3.198012 29.794746  
2002-03-26 08:34:05 51°19.871 2°59.482 9.720373 3.197111 29.784759  
2002-03-26 08:34:10 51°19.878 2°59.511 9.526301 3.19621 29.776859  
2002-03-26 08:34:15 51°19.884 2°59.539 9.525072 3.194808 29.762407  
2002-03-26 08:34:20 51°19.891 2°59.568 9.525072 3.194808 29.762407  
2002-03-26 08:34:25 51°19.899 2°59.597 9.485091 3.194908 29.762744  
2002-03-26 08:34:30 51°19.905 2°59.625 9.212647 3.194107 29.755181  
2002-03-26 08:34:35 51°19.914 2°59.653 9.405196 3.193005 29.743827  
2002-03-26 08:34:40 51°19.92 2°59.682 9.75136 3.192405 29.738329  
2002-03-26 08:34:45 51°19.928 2°59.71 9.403587 3.191403 29.727312  
2002-03-26 08:34:49 51°19.934 2°59.733 9.403587 3.191403 29.727312  
2002-03-26 08:34:55 51°19.944 2°59.767 9.438699 3.189801 29.711493  
2002-03-26 08:35:00 51°19.95 2°59.795 9.746039 3.1893 29.709111  
2002-03-26 08:35:05 51°19.958 2°59.823 9.359883 3.188299 29.699484  
2002-03-26 08:35:09 51°19.964 2°59.847 9.595052 3.186296 29.678842  
2002-03-26 08:35:15 51°19.973 2°59.88 9.747781 3.185395 29.670248  
2002-03-26 08:35:20 51°19.98 2°59.909 9.747781 3.185395 29.670248  
2002-03-26 08:35:25 51°19.988 2°59.937 9.438651 3.184193 29.659251  
2002-03-26 08:35:30 51°19.995 2°59.966 9.554735 3.184093 29.658912  
2002-03-26 08:35:35 51°20.002 2°59.995 9.472042 3.183192 29.650318  
2002-03-26 08:35:40 51°20.01 3°0.023 9.35832 3.182591 29.644819  
2002-03-26 08:35:45 51°20.017 3°0.052 9.744485 3.18199 29.63932  
2002-03-26 08:35:50 51°20.024 3°0.081 9.744485 3.18199 29.63932  
2002-03-26 08:35:55 51°20.032 3°0.109 9.743355 3.180588 29.624873  
2002-03-26 08:36:00 51°20.039 3°0.138 9.511464 3.181389 29.634514  
2002-03-26 08:36:05 51°20.046 3°0.167 9.120818 3.181289 29.632789  
2002-03-26 08:36:10 51°20.054 3°0.196 9.670047 3.180989 29.630386  
2002-03-26 08:36:15 51°20.061 3°0.225 9.551099 3.180989 29.631772  
2002-03-26 08:36:20 51°20.068 3°0.253 9.551099 3.180989 29.631772  
2002-03-26 08:36:25 51°20.075 3°0.282 9.319136 3.180989 29.632464  
2002-03-26 08:36:30 51°20.083 3°0.311 9.437942 3.180889 29.632818  
2002-03-26 08:36:35 51°20.09 3°0.34 9.547463 3.180989 29.63385  
2002-03-26 08:36:40 51°20.097 3°0.369 9.859133 3.180989 29.63385  
2002-03-26 08:36:44 51°20.103 3°0.392 9.395113 3.181389 29.636593  
2002-03-26 08:36:50 51°20.112 3°0.426 9.395113 3.181389 29.636593  
2002-03-26 08:36:55 51°20.12 3°0.455 9.543495 3.18149 29.638318  
2002-03-26 08:37:00 51°20.127 3°0.484 9.776496 3.18159 29.63935  
2002-03-26 08:37:05 51°20.135 3°0.513 9.703178 3.180288 29.62524  
2002-03-26 08:37:10 51°20.142 3°0.541 9.58363 3.181189 29.635221  
2002-03-26 08:37:15 51°20.149 3°0.57 9.774566 3.180388 29.627658  
2002-03-26 08:37:20 51°20.156 3°0.599 9.774566 3.180388 29.627658  
2002-03-26 08:37:25 51°20.164 3°0.627 9.695733 3.180488 29.629383  
2002-03-26 08:37:30 51°20.171 3°0.656 9.46126 3.179887 29.623883  
2002-03-26 08:37:35 51°20.179 3°0.685 9.462679 3.178986 29.615287  
2002-03-26 08:37:40 51°20.186 3°0.714 9.535749 3.178986 29.617364  
2002-03-26 08:37:45 51°20.194 3°0.742 9.726684 3.178486 29.612204  
2002-03-26 08:37:50 51°20.201 3°0.772 9.726684 3.178486 29.612204  
2002-03-26 08:37:55 51°20.208 3°0.8 9.457335 3.178085 29.608075  
2002-03-26 08:38:00 51°20.215 3°0.83 9.063411 3.177484 29.603267  
2002-03-26 08:38:05 51°20.223 3°0.858 9.417123 3.176783 29.597427  
2002-03-26 08:38:10 51°20.23 3°0.888 9.609161 3.176283 29.593651  
2002-03-26 08:38:15 51°20.238 3°0.916 9.531025 3.175582 29.587118  
2002-03-26 08:38:20 51°20.245 3°0.945 9.531025 3.175582 29.587118  
2002-03-26 08:38:25 51°20.253 3°0.974 9.569751 3.173879 29.571647  
2002-03-26 08:38:29 51°20.258 3°0.997 9.571403 3.173979 29.573371  
2002-03-26 08:38:35 51°20.268 3°1.032 9.298469 3.173479 29.569594  
2002-03-26 08:38:40 51°20.275 3°1.061 9.721739 3.173178 29.567189  
2002-03-26 08:38:45 51°20.282 3°1.09 9.527246 3.172978 29.565816  
2002-03-26 08:38:50 51°20.289 3°1.119 9.527246 3.172978 29.565816  
2002-03-26 08:38:55 51°20.297 3°1.148 9.642606 3.172678 29.564103  
2002-03-26 08:39:00 51°20.304 3°1.177 9.215448 3.172778 29.565135  
2002-03-26 08:39:05 51°20.312 3°1.206 9.329894 3.172678 29.564795  
2002-03-26 08:39:09 51°20.318 3°1.229 9.408509 3.172678 29.565486  
2002-03-26 08:39:15 51°20.327 3°1.264 9.332643 3.172277 29.560666  
2002-03-26 08:39:20 51°20.334 3°1.293 9.332643 3.172277 29.560666  
2002-03-26 08:39:25 51°20.342 3°1.323 9.445605 3.171877 29.55792  
2002-03-26 08:39:30 51°20.349 3°1.352 9.52375 3.171476 29.554482  
2002-03-26 08:39:35 51°20.357 3°1.381 9.403113 3.171176 29.552768  
2002-03-26 08:39:40 51°20.364 3°1.41 9.323971 3.170675 29.547607  
2002-03-26 08:39:45 51°20.372 3°1.439 9.927909 3.14464 29.280064  
2002-03-26 08:39:50 51°20.379 3°1.468 9.927909 3.14464 29.280064  
2002-03-26 08:39:55 51°20.386 3°1.496 9.249571 3.169874 29.540731  
2002-03-26 08:40:00 51°20.394 3°1.525 9.521434 3.169273 29.53592  
2002-03-26 08:40:05 51°20.402 3°1.553 9.478945 3.168873 29.532481  
2002-03-26 08:40:10 51°20.409 3°1.582 9.241789 3.168472 29.527661  
2002-03-26 08:40:15 51°20.418 3°1.609 9.783602 3.167471 29.520102  
2002-03-26 08:40:19 51°20.424 3°1.632 9.783602 3.167471 29.520102  
2002-03-26 08:40:24 51°20.432 3°1.66 9.318189 3.167771 29.523199  
2002-03-26 08:40:30 51°20.442 3°1.694 9.588208 3.167271 29.518728  
2002-03-26 08:40:35 51°20.45 3°1.722 9.470623 3.167471 29.520102  
2002-03-26 08:40:40 51°20.458 3°1.75 9.583441 3.16717 29.518387  
2002-03-26 08:40:45 51°20.466 3°1.778 9.349699 3.16687 29.51598  
2002-03-26 08:40:50 51°20.474 3°1.807 9.349699 3.16687 29.51598  
2002-03-26 08:40:55 51°20.482 3°1.835 9.699833 3.166469 29.513923  
2002-03-26 08:41:00 51°20.49 3°1.863 9.270396 3.166169 29.510826  
2002-03-26 08:41:05 51°20.498 3°1.892 9.503053 3.165268 29.504297  
2002-03-26 08:41:10 51°20.506 3°1.92 9.386071 3.164767 29.500516  
2002-03-26 08:41:15 51°20.514 3°1.948 9.576502 3.163666 29.49054  
2002-03-26 08:41:20 51°20.522 3°1.976 9.576502 3.163666 29.49054  
2002-03-26 08:41:24 51°20.528 3°1.999 9.307618 3.162865 29.48228  
2002-03-26 08:41:30 51°20.537 3°2.033 9.386355 3.161663 29.471961  
2002-03-26 08:41:35 51°20.545 3°2.061 9.616993 3.160762 29.463359  
2002-03-26 08:41:40 51°20.554 3°2.089 9.306907 3.159961 29.455789  
2002-03-26 08:41:45 51°20.561 3°2.117 9.500642 3.158559 29.442715  
2002-03-26 08:41:50 51°20.57 3°2.145 9.500642 3.158559 29.442715  
2002-03-26 08:41:55 51°20.577 3°2.174 9.386734 3.157858 29.436177  
2002-03-26 08:42:00 51°20.586 3°2.202 9.501966 3.156857 29.426543  
2002-03-26 08:42:05 51°20.593 3°2.23 9.268689 3.156456 29.422413  
2002-03-26 08:42:10 51°20.601 3°2.258 9.533151 3.155855 29.417597  
2002-03-26 08:42:15 51°20.609 3°2.286 9.53948 3.155154 29.408993  
2002-03-26 08:42:20 51°20.617 3°2.315 9.53948 3.155154 29.408993  
2002-03-26 08:42:25 51°20.625 3°2.343 9.345293 3.154754 29.406242  
2002-03-26 08:42:30 51°20.633 3°2.371 9.350457 3.154253 29.400392  
2002-03-26 08:42:35 51°20.641 3°2.4 9.307192 3.154053 29.398327  
2002-03-26 08:42:40 51°20.649 3°2.428 9.187814 3.153352 29.390413  
2002-03-26 08:42:45 51°20.657 3°2.457 9.34643 3.152952 29.387661  
2002-03-26 08:42:50 51°20.665 3°2.485 9.34643 3.152952 29.387661  
2002-03-26 08:42:55 51°20.673 3°2.514 9.57754 3.152351 29.381468  
2002-03-26 08:43:00 51°20.681 3°2.542 9.346857 3.15195 29.376651  
2002-03-26 08:43:05 51°20.689 3°2.57 9.109169 3.151149 29.367019  
2002-03-26 08:43:10 51°20.698 3°2.598 9.113116 3.15165 29.374242  
2002-03-26 08:43:15 51°20.706 3°2.627 9.074164 3.15155 29.371835  
2002-03-26 08:43:20 51°20.714 3°2.655 9.074164 3.15155 29.371835  
2002-03-26 08:43:25 51°20.722 3°2.684 9.345483 3.15155 29.372522  
2002-03-26 08:43:30 51°20.73 3°2.712 9.306765 3.151249 29.368738  
2002-03-26 08:43:35 51°20.738 3°2.741 9.110073 3.151149 29.36977  
2002-03-26 08:43:40 51°20.746 3°2.77 9.262522 3.150949 29.367705  
2002-03-26 08:43:45 51°20.754 3°2.798 9.306196 3.151049 29.369425  
2002-03-26 08:43:50 51°20.762 3°2.826 9.306196 3.151049 29.369425  
2002-03-26 08:43:55 51°20.77 3°2.855 9.34264 3.151049 29.368737  
2002-03-26 08:44:00 51°20.779 3°2.883 9.575652 3.150849 29.365298  
2002-03-26 08:44:05 51°20.787 3°2.911 9.382851 3.150749 29.364266  
2002-03-26 08:44:10 51°20.796 3°2.939 9.112497 3.150248 29.361168  
2002-03-26 08:44:15 51°20.804 3°2.968 9.534048 3.150248 29.361168  
2002-03-26 08:44:20 51°20.813 3°2.996 9.534048 3.150248 29.361168  
2002-03-26 08:44:25 51°20.822 3°3.024 9.343398 3.149948 29.358759  
2002-03-26 08:44:30 51°20.829 3°3.053 9.534662 3.150048 29.359104  
2002-03-26 08:44:35 51°20.839 3°3.08 9.305201 3.149447 29.352911  
2002-03-26 08:44:40 51°20.846 3°3.109 9.463294 3.149647 29.354288  
2002-03-26 08:44:44 51°20.854 3°3.131 9.03457 3.149347 29.351879  
2002-03-26 08:44:50 51°20.864 3°3.166 9.03457 3.149347 29.351879  
2002-03-26 08:44:55 51°20.873 3°3.194 9.339513 3.148546 29.342935  
2002-03-26 08:45:00 51°20.881 3°3.222 9.380152 3.147344 29.331238  
2002-03-26 08:45:05 51°20.89 3°3.25 9.262712 3.146343 29.321605  
2002-03-26 08:45:10 51°20.898 3°3.279 9.728945 3.145442 29.313004  
2002-03-26 08:45:15 51°20.907 3°3.306 9.498704 3.14454 29.302344  
2002-03-26 08:45:20 51°20.915 3°3.335 9.498704 3.14454 29.302344  
2002-03-26 08:45:25 51°20.924 3°3.363 9.417123 3.14384 29.295122  
2002-03-26 08:45:30 51°20.932 3°3.391 9.263993 3.143239 29.288931  
2002-03-26 08:45:35 51°20.941 3°3.419 9.070263 3.142538 29.28308  
2002-03-26 08:45:40 51°20.949 3°3.448 8.48312 3.141837 29.275857  
2002-03-26 08:45:45 51°20.958 3°3.475 8.405151 3.140936 29.266572  
2002-03-26 08:45:50 51°20.966 3°3.504 8.405151 3.140936 29.266572  
2002-03-26 08:45:55 51°20.975 3°3.532 8.44691 3.141036 29.266233  
2002-03-26 08:46:00 51°20.983 3°3.56 8.403805 3.140635 29.263477  
2002-03-26 08:46:05 51°20.992 3°3.588 8.406641 3.140635 29.264162  
2002-03-26 08:46:09 51°20.998 3°3.611 8.56838 3.140335 29.260381  
2002-03-26 08:46:15 51°21.009 3°3.645 8.444748 3.140535 29.262445  
2002-03-26 08:46:20 51°21.017 3°3.673 8.444748 3.140535 29.262445  
2002-03-26 08:46:25 51°21.026 3°3.702 8.404622 3.139434 29.251096  
2002-03-26 08:46:29 51°21.033 3°3.724 8.401594 3.140235 29.258665  
2002-03-26 08:46:35 51°21.043 3°3.758 8.325932 3.140135 29.257633  
2002-03-26 08:46:40 51°21.052 3°3.786 8.405487 3.140035 29.256601  
2002-03-26 08:46:45 51°21.06 3°3.815 8.365145 3.140135 29.257633  
2002-03-26 08:46:50 51°21.069 3°3.843 8.365145 3.140135 29.257633  
2002-03-26 08:46:55 51°21.077 3°3.871 8.362114 3.139834 29.253853  
2002-03-26 08:47:00 51°21.085 3°3.899 8.366251 3.138633 29.241474  
2002-03-26 08:47:05 51°21.093 3°3.928 8.361152 3.138833 29.244907  
2002-03-26 08:47:10 51°21.102 3°3.956 8.440905 3.138232 29.238717  
2002-03-26 08:47:15 51°21.11 3°3.985 8.399334 3.137832 29.234591  
2002-03-26 08:47:20 51°21.119 3°4.013 8.399334 3.137832 29.234591  
2002-03-26 08:47:25 51°21.127 3°4.042 8.325258 3.13653 29.221865  
2002-03-26 08:47:30 51°21.136 3°4.07 8.325884 3.135629 29.212582  
2002-03-26 08:47:35 51°21.144 3°4.099 8.403805 3.134527 29.201236  
2002-03-26 08:47:40 51°21.153 3°4.127 8.399911 3.134027 29.196762  
2002-03-26 08:47:45 51°21.161 3°4.156 8.444508 3.133626 29.19332  
2002-03-26 08:47:49 51°21.168 3°4.178 8.444508 3.133626 29.19332  
2002-03-26 08:47:55 51°21.178 3°4.213 8.519455 3.132925 29.1861  
2002-03-26 08:48:00 51°21.187 3°4.241 8.364375 3.131824 29.174072  
2002-03-26 08:48:05 51°21.195 3°4.27 8.400488 3.131624 29.172009  
2002-03-26 08:48:10 51°21.204 3°4.298 8.32213 3.131524 29.170978  
2002-03-26 08:48:15 51°21.212 3°4.327 8.361393 3.130823 29.164442  
2002-03-26 08:48:19 51°21.219 3°4.35 8.361393 3.130823 29.164442  
2002-03-26 08:48:25 51°21.229 3°4.384 8.438935 3.130522 29.160665  
2002-03-26 08:48:30 51°21.238 3°4.413 8.401161 3.129621 29.151384  
2002-03-26 08:48:35 51°21.246 3°4.441 8.441577 3.129521 29.150353  
2002-03-26 08:48:40 51°21.255 3°4.47 8.441145 3.129221 29.147259  
2002-03-26 08:48:45 51°21.264 3°4.498 8.359902 3.12882 29.143817  
2002-03-26 08:48:50 51°21.272 3°4.527 8.359902 3.12882 29.143817  
2002-03-26 08:48:55 51°21.281 3°4.555 8.363076 3.12852 29.140724  
2002-03-26 08:49:00 51°21.289 3°4.584 8.398469 3.12852 29.140724  
2002-03-26 08:49:05 51°21.298 3°4.612 8.439607 3.128119 29.137281  
2002-03-26 08:49:10 51°21.306 3°4.641 8.401834 3.128019 29.136933  
2002-03-26 08:49:15 51°21.315 3°4.669 8.320686 3.127819 29.133506  
2002-03-26 08:49:20 51°21.323 3°4.698 8.320686 3.127819 29.133506  
2002-03-26 08:49:25 51°21.332 3°4.726 8.399911 3.127619 29.132126  
2002-03-26 08:49:30 51°21.34 3°4.755 8.39919 3.127819 29.13487  
2002-03-26 08:49:35 51°21.349 3°4.783 8.403565 3.127919 29.135901  
2002-03-26 08:49:40 51°21.357 3°4.812 8.441001 3.128119 29.137964  
2002-03-26 08:49:45 51°21.367 3°4.841 8.439848 3.12892 29.146214  
2002-03-26 08:49:50 51°21.375 3°4.87 8.439848 3.12892 29.146214  
2002-03-26 08:49:55 51°21.384 3°4.898 8.479375 3.12872 29.143469  
2002-03-26 08:50:00 51°21.392 3°4.927 8.358699 3.12892 29.146896  
2002-03-26 08:50:05 51°21.401 3°4.955 8.400055 3.130122 29.158589  
2002-03-26 08:50:09 51°21.407 3°4.978 8.358411 3.130222 29.158937  
2002-03-26 08:50:15 51°21.417 3°5.012 8.317605 3.130122 29.157906  
2002-03-26 08:50:20 51°21.426 3°5.041 8.317605 3.130122 29.157906  
2002-03-26 08:50:25 51°21.434 3°5.069 8.437638 3.129921 29.155844  
2002-03-26 08:50:30 51°21.443 3°5.098 8.395681 3.129721 29.154464  
2002-03-26 08:50:35 51°21.451 3°5.127 8.35615 3.129921 29.157209  
2002-03-26 08:50:40 51°21.46 3°5.155 8.438118 3.129721 29.155147  
2002-03-26 08:50:44 51°21.466 3°5.178 8.47491 3.129821 29.157544  
2002-03-26 08:50:49 51°21.475 3°5.207 8.47491 3.129821 29.157544  
2002-03-26 08:50:55 51°21.485 3°5.241 8.313851 3.129721 29.156512  
2002-03-26 08:51:00 51°21.493 3°5.27 8.550829 3.130022 29.160973  
2002-03-26 08:51:05 51°21.502 3°5.298 8.391882 3.129922 29.159941  
2002-03-26 08:51:10 51°21.511 3°5.327 8.351868 3.129621 29.156847  
2002-03-26 08:51:15 51°21.52 3°5.355 8.390488 3.129421 29.154101  
2002-03-26 08:51:20 51°21.528 3°5.384 8.390488 3.129421 29.154101  
2002-03-26 08:51:25 51°21.536 3°5.412 8.351194 3.128319 29.143439  
2002-03-26 08:51:30 51°21.544 3°5.441 8.35028 3.127018 29.131397  
2002-03-26 08:51:35 51°21.553 3°5.47 8.504818 3.125716 29.118672  
2002-03-26 08:51:40 51°21.561 3°5.499 8.467083 3.124314 29.103553  
2002-03-26 08:51:45 51°21.57 3°5.527 8.545889 3.122312 29.083611  
2002-03-26 08:51:50 51°21.579 3°5.556 8.545889 3.122312 29.083611  
2002-03-26 08:51:55 51°21.587 3°5.584 8.429566 3.12081 29.069507  
2002-03-26 08:52:00 51°21.595 3°5.613 8.46497 3.119108 29.051979  
2002-03-26 08:52:05 51°21.604 3°5.641 8.462328 3.116705 29.028597  
2002-03-26 08:52:10 51°21.612 3°5.67 8.305619 3.114602 29.007628  
2002-03-26 08:52:15 51°21.621 3°5.699 8.50261 3.112199 28.983568  
2002-03-26 08:52:20 51°21.629 3°5.727 8.50261 3.112199 28.983568  
2002-03-26 08:52:25 51°21.638 3°5.756 8.34393 3.110096 28.961923  
2002-03-26 08:52:29 51°21.645 3°5.779 8.301719 3.107994 28.940958  
2002-03-26 08:52:35 51°21.654 3°5.814 8.341379 3.10539 28.914165  
2002-03-26 08:52:40 51°21.662 3°5.843 8.383756 3.102687 28.887698  
2002-03-26 08:52:45 51°21.669 3°5.872 8.379381 3.099884 28.860202  
2002-03-26 08:52:50 51°21.676 3°5.902 8.379381 3.099884 28.860202  
2002-03-26 08:52:55 51°21.684 3°5.931 8.418945 3.097481 28.835477  
2002-03-26 08:53:00 51°21.691 3°5.961 8.345614 3.095478 28.814875  
2002-03-26 08:53:05 51°21.699 3°5.99 8.342486 3.092074 28.781205  
2002-03-26 08:53:10 51°21.705 3°6.02 8.382314 3.090172 28.761637  
2002-03-26 08:53:15 51°21.713 3°6.049 8.34316 3.087969 28.738982  
2002-03-26 08:53:20 51°21.72 3°6.078 8.34316 3.087969 28.738982  
2002-03-26 08:53:25 51°21.728 3°6.108 8.34672 3.085566 28.715616  
2002-03-26 08:53:30 51°21.735 3°6.137 8.381112 3.083063 28.689876  
2002-03-26 08:53:35 51°21.743 3°6.167 8.380823 3.08066 28.664497  
2002-03-26 08:53:40 51°21.75 3°6.196 8.41635 3.078357 28.640822  
2002-03-26 08:53:45 51°21.758 3°6.226 8.300948 3.076155 28.618179  
2002-03-26 08:53:50 51°21.765 3°6.255 8.300948 3.076155 28.618179  
2002-03-26 08:53:55 51°21.773 3°6.285 8.380727 3.073251 28.587666  
2002-03-26 08:54:00 51°21.781 3°6.314 8.380583 3.071049 28.565698  
2002-03-26 08:54:05 51°21.789 3°6.343 8.33777 3.068546 28.539977  
2002-03-26 08:54:09 51°21.795 3°6.367 8.339262 3.066143 28.515956  
2002-03-26 08:54:15 51°21.804 3°6.402 8.418945 3.062839 28.483346  
2002-03-26 08:54:20 51°21.812 3°6.432 8.418945 3.062839 28.483346  
2002-03-26 08:54:25 51°21.819 3°6.461 8.340176 3.060737 28.462414  
2002-03-26 08:54:30 51°21.827 3°6.491 8.300082 3.058033 28.435313  
2002-03-26 08:54:35 51°21.834 3°6.521 8.340032 3.055931 28.413052  
2002-03-26 08:54:40 51°21.842 3°6.55 8.417167 3.053428 28.387347  
2002-03-26 08:54:44 51°21.848 3°6.574 8.419955 3.051326 28.365758  
2002-03-26 08:54:50 51°21.857 3°6.609 8.419955 3.051326 28.365758  
2002-03-26 08:54:55 51°21.865 3°6.639 8.377313 3.049323 28.344534  
2002-03-26 08:55:00 51°21.872 3°6.669 8.293004 3.04682 28.319501  
2002-03-26 08:55:05 51°21.88 3°6.698 8.295219 3.044918 28.299974  
2002-03-26 08:55:10 51°21.888 3°6.728 8.291752 3.042816 28.278393  
2002-03-26 08:55:15 51°21.895 3°6.758 8.293004 3.040013 28.24896  
2002-03-26 08:55:20 51°21.903 3°6.787 8.293004 3.040013 28.24896  
2002-03-26 08:55:25 51°21.909 3°6.818 8.29517 3.038611 28.234577  
2002-03-26 08:55:30 51°21.917 3°6.848 8.292329 3.035908 28.2075  
2002-03-26 08:55:35 51°21.922 3°6.879 8.294352 3.034406 28.194074  
2002-03-26 08:55:40 51°21.929 3°6.909 8.294737 3.031703 28.16832  
2002-03-26 08:55:45 51°21.935 3°6.94 8.293293 3.030102 28.152545  
2002-03-26 08:55:50 51°21.941 3°6.971 8.293293 3.030102 28.152545  
2002-03-26 08:55:55 51°21.945 3°7.002 8.289681 3.027899 28.130609  
2002-03-26 08:56:00 51°21.951 3°7.033 8.287755 3.026798 28.118652  
2002-03-26 08:56:05 51°21.955 3°7.065 8.289007 3.024996 28.099509  
2002-03-26 08:56:10 51°21.96 3°7.096 8.285973 3.023494 28.085423  
2002-03-26 08:56:15 51°21.965 3°7.127 8.283565 3.022293 28.073101  
2002-03-26 08:56:20 51°21.969 3°7.158 8.283565 3.022293 28.073101  
2002-03-26 08:56:25 51°21.974 3°7.19 8.477455 3.021592 28.066572  
2002-03-26 08:56:30 51°21.979 3°7.221 8.318423 3.020491 28.053963  
2002-03-26 08:56:35 51°21.984 3°7.252 8.363365 3.018989 28.039221  
2002-03-26 08:56:40 51°21.989 3°7.284 8.397556 3.017588 28.028133  
2002-03-26 08:56:45 51°21.994 3°7.315 8.279953 3.016387 28.017126  
2002-03-26 08:56:50 51°21.999 3°7.346 8.279953 3.016387 28.017126  
2002-03-26 08:56:55 51°22.004 3°7.377 8.321504 3.014685 28.001643  
2002-03-26 08:57:00 51°22.009 3°7.409 8.3216 3.012983 27.984847  
2002-03-26 08:57:05 51°22.015 3°7.44 8.35615 3.011681 27.972158  
2002-03-26 08:57:10 51°22.019 3°7.471 8.358314 3.01068 27.963203  
2002-03-26 08:57:15 51°22.025 3°7.503 8.317605 3.009079 27.94809  
2002-03-26 08:57:20 51°22.03 3°7.534 8.317605 3.009079 27.94809  
2002-03-26 08:57:25 51°22.035 3°7.565 8.321263 3.007477 27.932321  
2002-03-26 08:57:30 51°22.04 3°7.596 8.473902 3.006276 27.920004  
2002-03-26 08:57:35 51°22.046 3°7.628 8.396738 3.004173 27.898451  
2002-03-26 08:57:40 51°22.051 3°7.659 8.316883 3.003673 27.893974  
2002-03-26 08:57:45 51°22.056 3°7.691 8.395488 3.002372 27.880633  
2002-03-26 08:57:50 51°22.061 3°7.722 8.395488 3.002372 27.880633  
2002-03-26 08:57:55 51°22.067 3°7.753 8.353696 3.00067 27.863841  
2002-03-26 08:58:00 51°22.072 3°7.785 8.437301 2.999368 27.851155  
2002-03-26 08:58:05 51°22.078 3°7.816 8.357641 2.998067 27.837163  
2002-03-26 08:58:10 51°22.084 3°7.846 8.395584 2.996766 27.824477  
2002-03-26 08:58:15 51°22.092 3°7.875 8.318712 2.995564 27.812818  
2002-03-26 08:58:20 51°22.102 3°7.903 8.318712 2.995564 27.812818  
2002-03-26 08:58:25 51°22.114 3°7.929 8.396209 2.994563 27.801907  
2002-03-26 08:58:30 51°22.127 3°7.952 8.395296 2.992962 27.787448  
2002-03-26 08:58:35 51°22.141 3°7.974 8.358699 2.99186 27.776164  
2002-03-26 08:58:40 51°22.156 3°7.995 8.399623 2.99176 27.774487  
2002-03-26 08:58:45 51°22.171 3°8.016 8.438358 2.990359 27.761428  
2002-03-26 08:58:50 51°22.185 3°8.037 8.438358 2.990359 27.761428  
2002-03-26 08:58:55 51°22.201 3°8.057 8.279664 2.990359 27.762079  
2002-03-26 08:59:00 51°22.217 3°8.076 8.318953 2.989558 27.754524  
2002-03-26 08:59:05 51°22.233 3°8.095 8.396209 2.988757 27.746318  
2002-03-26 08:59:10 51°22.25 3°8.113 8.281157 2.987956 27.737462  
2002-03-26 08:59:15 51°22.266 3°8.131 8.437638 2.987556 27.732059  
2002-03-26 08:59:20 51°22.283 3°8.149 8.437638 2.987556 27.732059  
2002-03-26 08:59:25 51°22.299 3°8.168 8.399286 2.986455 27.720777  
2002-03-26 08:59:30 51°22.315 3°8.187 8.401305 2.985153 27.706147  
2002-03-26 08:59:35 51°22.331 3°8.206 8.322563 2.984052 27.694867  
2002-03-26 08:59:40 51°22.348 3°8.225 8.438358 2.982451 27.678462  
2002-03-26 08:59:45 51°22.364 3°8.244 8.470636 2.98165 27.669611  
2002-03-26 08:59:50 51°22.38 3°8.263 8.470636 2.98165 27.669611  
2002-03-26 08:59:55 51°22.397 3°8.282 8.509905 2.981049 27.66346  
2002-03-26 09:00:00 51°22.413 3°8.301 8.349799 2.980048 27.651912  
2002-03-26 09:00:04 51°22.426 3°8.316 8.26873 2.979247 27.643711  
2002-03-26 09:00:09 51°22.442 3°8.336 8.384189 2.978847 27.638963  
2002-03-26 09:00:15 51°22.461 3°8.36 8.465306 2.977946 27.630386  
2002-03-26 09:00:20 51°22.477 3°8.379 8.465306 2.977946 27.630386  
2002-03-26 09:00:25 51°22.492 3°8.4 8.385151 2.977546 27.628229  
2002-03-26 09:00:30 51°22.507 3°8.422 8.424616 2.977546 27.628229  
2002-03-26 09:00:35 51°22.521 3°8.445 8.307255 2.976745 27.621972  
2002-03-26 09:00:40 51°22.535 3°8.468 8.349703 2.975944 27.615714  
2002-03-26 09:00:45 51°22.549 3°8.491 8.387219 2.974743 27.604707  
2002-03-26 09:00:50 51°22.563 3°8.514 8.387219 2.974743 27.604707  
2002-03-26 09:00:55 51°22.576 3°8.539 8.359517 2.973341 27.591003  
2002-03-26 09:01:00 51°22.589 3°8.563 8.452914 2.972641 27.583828  
2002-03-26 09:01:05 51°22.601 3°8.589 8.423126 2.97184 27.576275  
2002-03-26 09:01:10 51°22.613 3°8.614 8.354466 2.971239 27.569478  
2002-03-26 09:01:15 51°22.625 3°8.641 8.40467 2.969838 27.555776  
2002-03-26 09:01:20 51°22.637 3°8.667 8.40467 2.969838 27.555776  
2002-03-26 09:01:25 51°22.648 3°8.694 8.451857 2.968136 27.538353  
2002-03-26 09:01:30 51°22.659 3°8.722 8.340658 2.966735 27.521425  
2002-03-26 09:01:35 51°22.669 3°8.75 8.466314 2.966334 27.511521  
2002-03-26 09:01:40 51°22.678 3°8.778 8.510433 2.966735 27.50917  
2002-03-26 09:01:45 51°22.688 3°8.806 8.434563 2.968136 27.516416  
2002-03-26 09:01:50 51°22.698 3°8.835 8.434563 2.968136 27.516416  
2002-03-26 09:01:55 51°22.707 3°8.863 8.397988 2.970438 27.533518  
2002-03-26 09:02:00 51°22.716 3°8.892 8.440472 2.97214 27.543183  
2002-03-26 09:02:05 51°22.725 3°8.92 8.40193 2.973241 27.549283  
2002-03-26 09:02:10 51°22.734 3°8.95 8.44297 2.973041 27.540144  
2002-03-26 09:02:15 51°22.742 3°8.979 8.366828 2.97224 27.527448  
2002-03-26 09:02:20 51°22.749 3°9.01 8.366828 2.97224 27.527448  
2002-03-26 09:02:25 51°22.756 3°9.039 8.407747 2.970638 27.507218  
2002-03-26 09:02:30 51°22.762 3°9.07 8.447102 2.969237 27.489041  
2002-03-26 09:02:35 51°22.768 3°9.101 8.409765 2.967335 27.4664  
2002-03-26 09:02:40 51°22.773 3°9.132 8.369474 2.965232 27.443005  
2002-03-26 09:02:45 51°22.778 3°9.164 8.409092 2.964031 27.429456  
2002-03-26 09:02:50 51°22.782 3°9.195 8.409092 2.964031 27.429456  
2002-03-26 09:02:55 51°22.786 3°9.227 8.488978 2.96233 27.410158  
2002-03-26 09:03:00 51°22.789 3°9.258 8.409092 2.960828 27.392908  
2002-03-26 09:03:05 51°22.792 3°9.29 8.608596 2.959126 27.373618  
2002-03-26 09:03:10 51°22.795 3°9.321 9.390048 2.957325 27.35459  
2002-03-26 09:03:15 51°22.797 3°9.353 9.429284 2.955623 27.336586  
2002-03-26 09:03:20 51°22.799 3°9.385 9.429284 2.955623 27.336586  
2002-03-26 09:03:25 51°22.801 3°9.417 9.431886 2.954222 27.321648  
2002-03-26 09:03:30 51°22.803 3°9.449 9.778661 2.95272 27.30569  
2002-03-26 09:03:35 51°22.805 3°9.48 9.239322 2.951619 27.294457  
2002-03-26 09:03:39 51°22.806 3°9.506 9.315582 2.951219 27.289735  
2002-03-26 09:03:45 51°22.809 3°9.544 9.664154 2.951319 27.288842  
2002-03-26 09:03:49 51°22.81 3°9.569 9.664154 2.951319 27.288842  
2002-03-26 09:03:55 51°22.813 3°9.607 9.431649 2.951219 27.287821  
2002-03-26 09:04:00 51°22.816 3°9.638 9.158221 2.950918 27.284758  
2002-03-26 09:04:05 51°22.817 3°9.669 9.352873 2.950318 27.277357  
2002-03-26 09:04:10 51°22.821 3°9.7 9.31506 2.949717 27.270594  
2002-03-26 09:04:15 51°22.822 3°9.731 9.625485 2.948416 27.256048  
2002-03-26 09:04:20 51°22.826 3°9.762 9.625485 2.948416 27.256048  
2002-03-26 09:04:25 51°22.828 3°9.793 9.273384 2.947215 27.244436  
2002-03-26 09:04:30 51°22.832 3°9.824 9.548313 2.946314 27.235249  
2002-03-26 09:04:35 51°22.834 3°9.855 9.470009 2.944812 27.221848  
2002-03-26 09:04:40 51°22.836 3°9.887 9.27419 2.944012 27.212411  
2002-03-26 09:04:45 51°22.839 3°9.918 9.547038 2.943311 27.205266